Location: Boston
(42.3580°N, 71.0600°W)
Time: 13:32:00
(UTC-04:00)

ISS - Pass Details

Date: 14 October 2017
Orbit: 401 x 408 km, 51.6° (Epoch: 23 October)

Event Time Altitude Azimuth Distance (km) Brightness Sun altitude
Rises 19:26:30 0° 298° (WNW) 2,325 1.2 -16.1°
Reaches altitude 10° 19:28:40 10° 290° (WNW) 1,464 0.2 -16.5°
Maximum altitude 19:31:43 36° 222° (SW) 660 -2.5 -17.1°
Enters shadow 19:33:30 20° 166° (SSE) 1,012 -2.0 -17.4°
